カタログに戻る

ONEWEB-0377

運用中通信PO
NORAD 49303·PAYLOAD·🇬🇧 United Kingdom

打ち上げ Oct 14, 2021 から Vostochny Cosmodrome

Loading…

次のパス (今後24時間)

TLE

最新Source: CelesTrak SupGP

元期: Sep 14, 2026, 19:10 UTC

1 49303C 21090AA  26257.79878889  .00001768  00000+0  43540-2 0  2573
2 49303  87.9137 256.5602 0002239  96.2326 340.1313 13.20768123    15

AllMySatでONEWEB-0377をリアルタイム追跡

Download on the App Store